Tracking 28790 objects as of 19-Apr-2024
HD Live streaming from Space Station
objects crossing your sky now

STARLINK-3573

Track STARLINK-3573 now!
10-day predictions
STARLINK-3573 is classified as:


NORAD ID: 51794
Int'l Code: 2022-017AC
Perigee: 545.7 km
Apogee: 548.0 km
Inclination: 53.2 °
Period: 95.4 minutes
Semi major axis: 6917 km
RCS: Unknown
Launch date: February 25, 2022
Source: United States (US)
Launch site: AIR FORCE WESTERN TEST RANGE (AFWTR)
Your satellite tracking list
Your tracking list is empty




NASA's NSSDC Master Catalog

Two Line Element Set (TLE):
1 51794U 22017AC  24110.53182246  .00005551  00000-0  36652-3 0  9998
2 51794  53.2169 202.8710 0001603  92.0425 268.0751 15.08848787119888
Source of the keplerian elements: AFSPC